Weather in Trubnikov Bor

Russia / Saint-Petersburg and Leningrad Oblast     59°16′00″N   31°23′52″E
temp.,
°C
wind,
m/s
gust,
m/s
humid.,
%
clouds,
%
prec.,
mm/h
press.,
hPa
HPBL,
m
5 march, fri
fri500:00−6nw388918 0.0 1005350
03:00−7wnw379119 0.0 1006311
06:00−6nw378872 0.0 1006452
09:00−6nnw378478 0.0 1008537
12:00−5nw357199 0.0 1010753
15:00−3nw3562100 0.0 1012989
18:00−4nw366599 0.0 1013744
21:00−5nw368390 0.1 1015566
6 march, sat
sat600:00−6nne248898 0.6 1016365
03:00−7wnw248874 0.6 1017221
06:00−8wnw25870 0.0 1016227
09:00−7w26830 0.0 1016395
12:00−4wsw36650 0.0 1015709
15:00−2sw594922 0.0 10111204
18:00−3ssw71460100 0.0 10061304
21:00−2sw71592100 1.6 10001231
7 march, sun
sun700:00−1wsw71593100 0.9 9941208
03:00−2wnw61189100 3.1 992987
06:00−6wnw3105598 0.1 991882
09:00−7w5107063 0.1 9921063
12:00−5w5948100 0.1 9921976
15:00−5nw2374100 0.4 992639
18:00−6n4765100 0.1 992695
21:00−10n397971 0.1 996524
8 march, mon
mon800:00−9nnw388465 0.1 999563
03:00−9nw498876 0.1 1001497
06:00−9nnw51081100 0.1 1003793
09:00−11n5981100 0.1 1006670
12:00−12nnw5974100 0.0 1009640
15:00−11n5973100 0.1 1011636
18:00−12n51080100 0.0 1014656
21:00−14n4985100 0.0 1016612
9 march, tue
tue900:00−15n368787 0.0 1018422
03:00−16n258769 0.0 1019335
06:00−16n13860 0.0 1020205
09:00−15ene017844 0.0 1021212
12:00−12s2368100 0.0 1020453
15:00−10sse3680100 0.1 1018510
18:00−10se4892100 1.8 1016493
21:00−10ese51093100 3.4 1016480